QPF
0.02 0.04 0.04 0.03 0.02 0.01 0.01 0.01 0.00 0.00 0.00 0.00 0.00 0.00 0.00 0.00 0.00 0.01 0.01 0.01 0.01 0.01 0.01 0.02 0.03 0.03 0.02 0.02 0.03 0.05 0.08 0.09 0.09 0.09 0.08 0.07 0.05 0.03 0.02 0.02 0.02 0.02 0.02 0.02
0.02 0.02 0.02 0.02 0.02 0.02 0.01 0.01 0.01 0.00 0.00 0.00 0.00 0.00 0.00 0.00 0.00 0.00 0.01 0.01 0.01 0.01 0.01 0.01 0.03 0.03 0.02 0.03 0.03 0.03 0.06 0.07 0.08 0.10 0.11 0.09 0.07 0.05 0.03 0.02 0.02 0.02 0.02 0.02
0.02 0.02 0.01 0.02 0.02 0.03 0.03 0.01 0.01 0.00 0.00 0.00 0.00 0.00 0.00 0.00 0.00 0.00 0.00 0.00 0.00 0.01 0.01 0.01 0.02 0.03 0.03 0.03 0.03 0.03 0.03 0.04 0.05 0.07 0.10 0.10 0.09 0.07 0.06 0.05 0.03 0.02 0.02 0.02
0.01 0.01 0.02 0.02 0.02 0.03 0.03 0.01 0.00 0.00 0.01 0.01 0.01 0.01 0.00 0.00 0.00 0.00 0.00 0.00 0.00 0.00 0.01 0.02 0.02 0.02 0.03 0.03 0.03 0.04 0.03 0.03 0.05 0.06 0.08 0.09 0.10 0.11 0.10 0.08 0.06 0.04 0.03 0.03
0.02 0.01 0.01 0.02 0.02 0.02 0.02 0.01 0.01 0.00 0.01 0.01 0.01 0.01 0.00 0.00 0.00 0.00 0.00 0.00 0.00 0.00 0.00 0.01 0.02 0.03 0.03 0.02 0.03 0.04 0.04 0.03 0.04 0.05 0.06 0.07 0.08 0.09 0.10 0.09 0.07 0.05 0.04 0.04
0.01 0.01 0.01 0.02 0.02 0.01 0.02 0.02 0.02 0.02 0.02 0.02 0.00 0.00 0.00 0.00 0.00 0.00 0.00 0.00 0.00 0.00 0.00 0.01 0.01 0.02 0.03 0.03 0.02 0.03 0.05 0.05 0.05 0.05 0.06 0.06 0.07 0.07 0.06 0.07 0.06 0.05 0.04 0.05
0.01 0.01 0.01 0.01 0.01 0.02 0.02 0.04 0.05 0.05 0.04 0.01 0.00 0.00 0.00 0.00 0.00 0.00 0.00 0.00 0.00 0.00 0.00 0.00 0.01 0.01 0.01 0.02 0.02 0.02 0.03 0.04 0.05 0.05 0.05 0.05 0.05 0.06 0.06 0.06 0.06 0.05 0.05 0.04
0.01 0.01 0.00 0.01 0.02 0.02 0.02 0.03 0.03 0.03 0.01 0.00 0.00 0.00 0.00 0.00 0.00 0.00 0.00 0.00 0.00 0.00 0.00 0.00 0.00 0.01 0.01 0.01 0.01 0.01 0.01 0.01 0.02 0.03 0.03 0.03 0.03 0.03 0.05 0.05 0.06 0.06 0.05 0.04
0.01 0.01 0.00 0.01 0.02 0.01 0.01 0.02 0.02 0.03 0.02 0.00 0.00 0.00 0.00 0.00 0.00 0.00 0.00 0.00 0.00 0.00 0.00 0.00 0.00 0.00 0.01 0.00 0.00 0.01 0.01 0.01 0.01 0.01 0.02 0.02 0.02 0.02 0.03 0.03 0.04 0.04 0.04 0.03
0.01 0.01 0.00 0.01 0.01 0.01 0.01 0.01 0.02 0.03 0.02 0.01 0.00 0.00 0.00 0.00 0.00 0.00 0.00 0.00 0.00 0.00 0.00 0.00 0.00 0.00 0.00 0.00 0.00 0.00 0.01 0.01 0.00 0.01 0.01 0.01 0.01 0.01 0.02 0.02 0.03 0.02 0.02 0.02
0.02 0.01 0.01 0.01 0.01 0.01 0.02 0.01 0.01 0.02 0.01 0.01 0.00 0.00 0.00 0.00 0.00 0.00 0.00 0.00 0.00 0.00 0.00 0.00 0.00 0.00 0.00 0.00 0.00 0.01 0.01 0.01 0.01 0.00 0.00 0.00 0.01 0.01 0.01 0.01 0.02 0.02 0.01 0.01
0.01 0.01 0.01 0.01 0.00 0.00 0.01 0.01 0.01 0.02 0.01 0.00 0.00 0.00 0.00 0.00 0.00 0.00 0.00 0.00 0.00 0.00 0.00 0.00 0.00 0.00 0.00 0.01 0.00 0.00 0.00 0.00 0.01 0.01 0.00 0.00 0.01 0.01 0.01 0.01 0.01 0.02 0.01 0.01
0.02 0.02 0.01 0.01 0.01 0.01 0.01 0.01 0.01 0.01 0.01 0.01 0.00 0.00 0.00 0.00 0.00 0.00 0.00 0.00 0.00 0.00 0.00 0.00 0.00 0.00 0.00 0.00 0.00 0.00 0.00 0.00 0.00 0.01 0.01 0.01 0.01 0.01 0.01 0.01 0.01 0.01 0.01 0.01
0.02 0.01 0.01 0.01 0.01 0.01 0.01 0.01 0.01 0.02 0.02 0.01 0.00 0.00 0.00 0.00 0.00 0.00 0.00 0.00 0.00 0.00 0.00 0.00 0.00 0.00 0.00 0.00 0.00 0.00 0.00 0.00 0.00 0.01 0.01 0.01 0.01 0.01 0.01 0.01 0.01 0.01 0.01 0.01
0.03 0.02 0.01 0.01 0.01 0.01 0.01 0.01 0.01 0.01 0.01 0.00 0.00 0.00 0.00 0.00 0.00 0.00 0.00 0.00 0.00 0.00 0.00 0.00 0.00 0.00 0.00 0.00 0.00 0.00 0.00 0.00 0.00 0.01 0.01 0.01 0.01 0.01 0.01 0.01 0.01 0.01 0.01 0.01
0.02 0.01 0.01 0.00 0.01 0.01 0.01 0.01 0.01 0.01 0.01 0.00 0.00 0.00 0.00 0.00 0.00 0.00 0.00 0.00 0.00 0.00 0.00 0.00 0.00 0.00 0.00 0.00 0.00 0.00 0.00 0.00 0.01 0.01 0.01 0.01 0.01 0.01 0.01 0.01 0.01 0.01 0.01 0.02
0.02 0.01 0.01 0.00 0.00 0.01 0.01 0.01 0.01 0.01 0.01 0.01 0.01 0.01 0.00 0.00 0.00 0.00 0.00 0.00 0.00 0.00 0.00 0.00 0.00 0.00 0.00 0.00 0.00 0.00 0.00 0.00 0.00 0.01 0.01 0.01 0.01 0.01 0.01 0.01 0.01 0.01 0.01 0.01
0.02 0.02 0.02 0.01 0.01 0.01 0.00 0.01 0.01 0.01 0.01 0.01 0.01 0.00 0.00 0.00 0.00 0.00 0.00 0.00 0.00 0.00 0.00 0.00 0.00 0.00 0.00 0.00 0.00 0.00 0.00 0.00 0.00 0.00 0.00 0.00 0.01 0.01 0.00 0.00 0.00 0.00 0.00 0.01
0.02 0.02 0.02 0.02 0.01 0.00 0.00 0.01 0.00 0.00 0.00 0.01 0.00 0.00 0.01 0.00 0.00 0.01 0.00 0.00 0.00 0.00 0.00 0.00 0.00 0.00 0.00 0.00 0.00 0.00 0.00 0.00 0.00 0.00 0.00 0.00 0.00 0.00 0.00 0.00 0.00 0.00 0.00 0.00
0.02 0.02 0.03 0.02 0.01 0.00 0.00 0.00 0.00 0.00 0.00 0.00 0.00 0.00 0.00 0.00 0.00 0.01 0.01 0.01 0.01 0.00 0.00 0.00 0.00 0.00 0.00 0.00 0.00 0.00 0.00 0.00 0.00 0.00 0.00 0.00 0.00 0.00 0.00 0.00 0.00 0.00 0.00 0.00
0.02 0.02 0.02 0.01 0.01 0.00 0.00 0.00 0.00 0.01 0.01 0.00 0.01 0.01 0.01 0.00 0.00 0.00 0.01 0.01 0.01 0.01 0.00 0.00 0.00 0.00 0.00 0.00 0.00 0.00 0.00 0.00 0.00 0.00 0.00 0.00 0.00 0.00 0.00 0.00 0.00 0.00 0.00 0.00
0.01 0.01 0.01 0.01 0.01 0.00 0.00 0.00 0.01 0.01 0.01 0.01 0.01 0.01 0.01 0.00 0.00 0.01 0.01 0.01 0.01 0.01 0.00 0.00 0.00 0.00 0.00 0.00 0.00 0.00 0.00 0.00 0.00 0.01 0.00 0.00 0.00 0.00 0.00 0.00 0.00 0.00 0.00 0.00
0.01 0.01 0.01 0.01 0.00 0.00 0.00 0.00 0.01 0.01 0.01 0.01 0.01 0.01 0.01 0.01 0.01 0.01 0.01 0.00 0.01 0.01 0.00 0.00 0.00 0.00 0.00 0.00 0.00 0.00 0.00 0.00 0.00 0.00 0.00 0.00 0.00 0.00 0.00 0.00 0.00 0.00 0.00 0.00
0.01 0.01 0.01 0.00 0.00 0.00 0.00 0.01 0.01 0.01 0.01 0.01 0.01 0.01 0.01 0.01 0.01 0.01 0.01 0.01 0.01 0.01 0.01 0.00 0.00 0.00 0.00 0.00 0.00 0.00 0.00 0.00 0.00 0.00 0.00 0.00 0.00 0.00 0.00 0.00 0.00 0.00 0.00 0.01
0.01 0.01 0.01 0.00 0.00 0.00 0.00 0.01 0.01 0.01 0.01 0.01 0.01 0.01 0.01 0.01 0.01 0.01 0.01 0.01 0.02 0.02 0.01 0.01 0.01 0.01 0.01 0.01 0.01 0.01 0.00 0.00 0.00 0.00 0.00 0.00 0.00 0.00 0.00 0.00 0.00 0.00 0.00 0.01
0.01 0.01 0.01 0.01 0.01 0.01 0.00 0.01 0.01 0.01 0.01 0.01 0.01 0.01 0.01 0.01 0.01 0.01 0.01 0.01 0.02 0.02 0.02 0.02 0.02 0.01 0.01 0.01 0.02 0.02 0.01 0.01 0.01 0.01 0.00 0.00 0.00 0.00 0.00 0.00 0.00 0.00 0.00 0.01
MSLP
1020.95 1021.07 1021.33 1021.70 1022.15 1022.63 1023.08 1023.45 1023.68 1023.79 1023.76 1023.65 1023.49 1023.33 1023.21 1023.15 1023.17 1023.23 1023.31 1023.37 1023.36 1023.27 1023.08 1022.79 1022.42 1021.99 1021.50 1020.99 1020.45 1019.88 1019.28 1018.64 1017.99 1017.33 1016.71 1016.14 1015.68 1015.34 1015.14 1015.06 1015.09 1015.17 1015.27 1015.35
1021.68 1021.85 1022.14 1022.55 1023.04 1023.53 1023.98 1024.31 1024.51 1024.55 1024.45 1024.25 1024.01 1023.77 1023.58 1023.47 1023.44 1023.47 1023.53 1023.58 1023.58 1023.49 1023.29 1023.00 1022.61 1022.16 1021.65 1021.12 1020.55 1019.97 1019.35 1018.71 1018.04 1017.38 1016.74 1016.16 1015.68 1015.32 1015.10 1015.01 1015.04 1015.13 1015.26 1015.37
1022.48 1022.70 1023.06 1023.53 1024.07 1024.60 1025.05 1025.38 1025.53 1025.49 1025.30 1025.00 1024.64 1024.28 1023.99 1023.80 1023.72 1023.72 1023.76 1023.81 1023.81 1023.73 1023.53 1023.23 1022.83 1022.36 1021.82 1021.26 1020.67 1020.06 1019.44 1018.79 1018.13 1017.48 1016.84 1016.26 1015.77 1015.39 1015.16 1015.06 1015.08 1015.18 1015.33 1015.47
1023.27 1023.57 1024.01 1024.57 1025.17 1025.76 1026.24 1026.55 1026.65 1026.54 1026.23 1025.79 1025.29 1024.79 1024.38 1024.09 1023.93 1023.89 1023.92 1023.98 1024.00 1023.94 1023.76 1023.47 1023.06 1022.57 1022.01 1021.42 1020.81 1020.19 1019.56 1018.92 1018.28 1017.64 1017.02 1016.45 1015.96 1015.58 1015.34 1015.22 1015.23 1015.34 1015.50 1015.67
1023.99 1024.38 1024.91 1025.57 1026.26 1026.91 1027.43 1027.74 1027.79 1027.59 1027.15 1026.56 1025.88 1025.23 1024.66 1024.25 1024.01 1023.92 1023.94 1024.01 1024.07 1024.05 1023.92 1023.65 1023.26 1022.76 1022.20 1021.59 1020.97 1020.34 1019.72 1019.10 1018.49 1017.88 1017.30 1016.75 1016.28 1015.90 1015.65 1015.52 1015.52 1015.62 1015.77 1015.95
1024.60 1025.07 1025.71 1026.46 1027.25 1027.97 1028.53 1028.85 1028.85 1028.55 1027.99 1027.23 1026.37 1025.54 1024.80 1024.26 1023.91 1023.77 1023.78 1023.87 1023.97 1024.01 1023.94 1023.73 1023.38 1022.92 1022.36 1021.76 1021.14 1020.53 1019.92 1019.34 1018.76 1018.20 1017.66 1017.15 1016.70 1016.34 1016.08 1015.93 1015.91 1015.99 1016.13 1016.30
1025.09 1025.65 1026.37 1027.22 1028.09 1028.89 1029.49 1029.80 1029.77 1029.38 1028.69 1027.77 1026.74 1025.71 1024.80 1024.11 1023.65 1023.44 1023.42 1023.53 1023.68 1023.80 1023.81 1023.68 1023.40 1022.99 1022.48 1021.91 1021.32 1020.73 1020.16 1019.62 1019.09 1018.58 1018.09 1017.63 1017.21 1016.85 1016.59 1016.43 1016.37 1016.41 1016.52 1016.66
1025.51 1026.12 1026.92 1027.83 1028.78 1029.63 1030.26 1030.58 1030.51 1030.06 1029.25 1028.19 1026.99 1025.79 1024.71 1023.85 1023.28 1022.98 1022.93 1023.04 1023.23 1023.42 1023.51 1023.48 1023.29 1022.96 1022.52 1022.01 1021.46 1020.93 1020.41 1019.91 1019.45 1018.99 1018.56 1018.14 1017.74 1017.40 1017.13 1016.94 1016.85 1016.84 1016.89 1016.98
1025.91 1026.55 1027.38 1028.33 1029.31 1030.19 1030.85 1031.16 1031.07 1030.56 1029.67 1028.50 1027.16 1025.81 1024.57 1023.57 1022.87 1022.48 1022.37 1022.46 1022.68 1022.92 1023.09 1023.15 1023.05 1022.82 1022.47 1022.03 1021.56 1021.08 1020.62 1020.18 1019.77 1019.38 1018.99 1018.61 1018.25 1017.91 1017.63 1017.41 1017.27 1017.20 1017.20 1017.24
1026.35 1026.98 1027.80 1028.75 1029.72 1030.59 1031.24 1031.55 1031.44 1030.90 1029.95 1028.71 1027.28 1025.82 1024.46 1023.33 1022.52 1022.02 1021.84 1021.89 1022.10 1022.37 1022.61 1022.74 1022.74 1022.60 1022.33 1021.98 1021.59 1021.17 1020.77 1020.39 1020.03 1019.68 1019.34 1018.99 1018.65 1018.32 1018.02 1017.77 1017.59 1017.47 1017.42 1017.41
1026.86 1027.44 1028.21 1029.10 1030.01 1030.83 1031.44 1031.72 1031.60 1031.04 1030.09 1028.82 1027.36 1025.84 1024.41 1023.20 1022.29 1021.70 1021.44 1021.43 1021.61 1021.87 1022.14 1022.32 1022.39 1022.33 1022.15 1021.88 1021.54 1021.19 1020.84 1020.50 1020.18 1019.86 1019.55 1019.22 1018.90 1018.57 1018.26 1017.99 1017.78 1017.62 1017.52 1017.47
1027.43 1027.93 1028.60 1029.38 1030.18 1030.91 1031.44 1031.67 1031.52 1030.97 1030.05 1028.81 1027.37 1025.86 1024.42 1023.18 1022.21 1021.55 1021.22 1021.14 1021.27 1021.51 1021.76 1021.97 1022.08 1022.07 1021.95 1021.74 1021.46 1021.15 1020.83 1020.51 1020.21 1019.91 1019.61 1019.30 1018.98 1018.66 1018.35 1018.06 1017.83 1017.64 1017.52 1017.45
1028.01 1028.42 1028.94 1029.56 1030.21 1030.79 1031.21 1031.37 1031.19 1030.66 1029.78 1028.62 1027.26 1025.83 1024.45 1023.23 1022.26 1021.57 1021.18 1021.05 1021.12 1021.31 1021.54 1021.74 1021.86 1021.88 1021.79 1021.61 1021.36 1021.07 1020.76 1020.45 1020.14 1019.84 1019.54 1019.23 1018.91 1018.59 1018.28 1018.00 1017.76 1017.57 1017.43 1017.36
1028.55 1028.83 1029.19 1029.62 1030.07 1030.46 1030.73 1030.79 1030.57 1030.06 1029.26 1028.21 1026.99 1025.70 1024.43 1023.30 1022.38 1021.71 1021.30 1021.13 1021.14 1021.28 1021.47 1021.64 1021.75 1021.77 1021.69 1021.52 1021.27 1020.98 1020.66 1020.33 1020.00 1019.68 1019.36 1019.04 1018.72 1018.41 1018.11 1017.84 1017.60 1017.42 1017.29 1017.22
1028.96 1029.11 1029.29 1029.51 1029.73 1029.91 1030.00 1029.94 1029.67 1029.18 1028.47 1027.56 1026.51 1025.40 1024.31 1023.32 1022.50 1021.89 1021.50 1021.32 1021.30 1021.39 1021.53 1021.67 1021.75 1021.75 1021.66 1021.47 1021.21 1020.90 1020.55 1020.19 1019.82 1019.47 1019.12 1018.79 1018.46 1018.15 1017.86 1017.61 1017.39 1017.22 1017.10 1017.03
1029.18 1029.19 1029.20 1029.20 1029.19 1029.15 1029.05 1028.86 1028.53 1028.05 1027.43 1026.67 1025.82 1024.92 1024.04 1023.23 1022.56 1022.05 1021.71 1021.54 1021.50 1021.56 1021.66 1021.76 1021.80 1021.78 1021.66 1021.45 1021.17 1020.82 1020.44 1020.03 1019.62 1019.23 1018.85 1018.49 1018.15 1017.85 1017.57 1017.33 1017.13 1016.98 1016.87 1016.80
1029.16 1029.05 1028.89 1028.69 1028.46 1028.21 1027.93 1027.61 1027.22 1026.76 1026.23 1025.62 1024.96 1024.28 1023.62 1023.02 1022.51 1022.11 1021.85 1021.71 1021.67 1021.71 1021.78 1021.84 1021.85 1021.79 1021.65 1021.42 1021.11 1020.73 1020.30 1019.85 1019.40 1018.96 1018.55 1018.16 1017.82 1017.51 1017.25 1017.02 1016.84 1016.69 1016.58 1016.51
1028.86 1028.67 1028.37 1028.00 1027.59 1027.16 1026.72 1026.29 1025.86 1025.42 1024.97 1024.50 1024.03 1023.55 1023.10 1022.69 1022.34 1022.06 1021.88 1021.77 1021.74 1021.76 1021.80 1021.83 1021.81 1021.73 1021.56 1021.31 1020.97 1020.56 1020.11 1019.62 1019.13 1018.66 1018.21 1017.80 1017.44 1017.13 1016.88 1016.66 1016.48 1016.34 1016.23 1016.14
1028.30 1028.04 1027.65 1027.16 1026.62 1026.07 1025.53 1025.02 1024.57 1024.16 1023.79 1023.45 1023.14 1022.84 1022.56 1022.31 1022.09 1021.91 1021.79 1021.71 1021.68 1021.68 1021.69 1021.68 1021.63 1021.52 1021.34 1021.07 1020.71 1020.29 1019.81 1019.30 1018.78 1018.28 1017.81 1017.38 1017.01 1016.69 1016.44 1016.22 1016.05 1015.91 1015.78 1015.67
1027.52 1027.22 1026.78 1026.23 1025.62 1025.01 1024.42 1023.90 1023.46 1023.10 1022.81 1022.58 1022.40 1022.24 1022.09 1021.95 1021.83 1021.71 1021.61 1021.54 1021.48 1021.45 1021.41 1021.36 1021.28 1021.15 1020.94 1020.66 1020.30 1019.87 1019.39 1018.86 1018.33 1017.80 1017.31 1016.87 1016.49 1016.17 1015.91 1015.70 1015.52 1015.37 1015.24 1015.11
1026.55 1026.25 1025.81 1025.26 1024.66 1024.06 1023.49 1023.01 1022.61 1022.32 1022.12 1021.98 1021.90 1021.83 1021.77 1021.70 1021.61 1021.51 1021.40 1021.29 1021.19 1021.10 1021.00 1020.90 1020.78 1020.61 1020.39 1020.10 1019.74 1019.31 1018.82 1018.29 1017.75 1017.22 1016.72 1016.27 1015.88 1015.55 1015.29 1015.07 1014.90 1014.75 1014.60 1014.46
1025.50 1025.22 1024.82 1024.33 1023.80 1023.27 1022.79 1022.39 1022.08 1021.87 1021.75 1021.69 1021.67 1021.66 1021.64 1021.58 1021.48 1021.35 1021.19 1021.02 1020.84 1020.67 1020.51 1020.34 1020.16 1019.96 1019.71 1019.41 1019.05 1018.62 1018.14 1017.61 1017.07 1016.54 1016.04 1015.58 1015.18 1014.85 1014.59 1014.37 1014.19 1014.04 1013.90 1013.76
1024.45 1024.23 1023.91 1023.53 1023.11 1022.70 1022.35 1022.06 1021.86 1021.74 1021.70 1021.70 1021.71 1021.72 1021.69 1021.60 1021.46 1021.26 1021.02 1020.76 1020.49 1020.22 1019.97 1019.73 1019.49 1019.24 1018.96 1018.64 1018.27 1017.85 1017.37 1016.85 1016.32 1015.79 1015.29 1014.83 1014.43 1014.10 1013.83 1013.61 1013.44 1013.29 1013.15 1013.01
1023.54 1023.39 1023.18 1022.92 1022.65 1022.40 1022.18 1022.02 1021.93 1021.89 1021.91 1021.94 1021.96 1021.94 1021.87 1021.73 1021.51 1021.22 1020.89 1020.52 1020.14 1019.77 1019.42 1019.10 1018.79 1018.49 1018.17 1017.83 1017.45 1017.03 1016.55 1016.05 1015.52 1015.00 1014.50 1014.05 1013.65 1013.32 1013.05 1012.83 1012.66 1012.52 1012.39 1012.26
1022.89 1022.82 1022.73 1022.61 1022.49 1022.38 1022.29 1022.24 1022.24 1022.26 1022.29 1022.32 1022.31 1022.25 1022.11 1021.89 1021.57 1021.19 1020.75 1020.28 1019.79 1019.33 1018.88 1018.48 1018.10 1017.74 1017.38 1017.01 1016.62 1016.19 1015.72 1015.22 1014.71 1014.20 1013.71 1013.26 1012.87 1012.54 1012.27 1012.06 1011.89 1011.76 1011.64 1011.52
1022.59 1022.61 1022.63 1022.63 1022.64 1022.64 1022.66 1022.68 1022.71 1022.74 1022.76 1022.74 1022.67 1022.53 1022.30 1021.98 1021.57 1021.09 1020.55 1019.98 1019.41 1018.85 1018.33 1017.85 1017.40 1016.99 1016.59 1016.19 1015.78 1015.34 1014.88 1014.39 1013.89 1013.40 1012.92 1012.49 1012.10 1011.78 1011.51 1011.30 1011.14 1011.01 1010.89 1010.78
Thickness
5555 5559 5561 5564 5566 5570 5573 5573 5574 5574 5567 5569 5577 5581 5582 5579 5576 5578 5579 5579 5579 5579 5580 5579 5579 5580 5581 5582 5583 5584 5585 5586 5586 5588 5589 5591 5592 5592 5593 5594 5594 5596 5596 5597
5547 5549 5551 5551 5552 5555 5560 5562 5564 5559 5554 5560 5567 5572 5576 5573 5572 5573 5573 5572 5572 5571 5570 5569 5569 5570 5571 5572 5572 5573 5573 5574 5575 5576 5578 5579 5581 5582 5583 5583 5585 5585 5587 5588
5544 5541 5540 5540 5541 5545 5549 5554 5555 5552 5547 5548 5553 5569 5572 5568 5564 5562 5562 5563 5563 5562 5563 5561 5561 5561 5561 5561 5561 5562 5563 5563 5564 5565 5566 5568 5569 5570 5572 5573 5574 5575 5576 5578
5530 5527 5529 5532 5534 5537 5541 5539 5539 5538 5542 5548 5545 5560 5572 5565 5557 5555 5554 5553 5553 5552 5552 5552 5551 5551 5550 5550 5550 5551 5552 5552 5553 5554 5555 5557 5560 5562 5562 5562 5563 5564 5566 5568
5521 5518 5521 5524 5526 5526 5529 5525 5526 5527 5530 5531 5534 5537 5567 5553 5554 5555 5551 5547 5544 5543 5542 5542 5541 5540 5539 5539 5539 5539 5540 5540 5541 5542 5543 5546 5548 5549 5550 5550 5552 5553 5555 5557
5508 5507 5510 5515 5512 5514 5512 5513 5512 5513 5518 5523 5531 5533 5559 5556 5552 5550 5546 5541 5537 5534 5532 5531 5530 5529 5528 5528 5527 5527 5528 5528 5529 5530 5532 5534 5536 5537 5539 5540 5541 5542 5544 5546
5499 5500 5498 5501 5503 5501 5506 5509 5512 5514 5516 5530 5517 5523 5547 5545 5536 5534 5532 5530 5527 5524 5523 5521 5520 5519 5519 5518 5517 5517 5517 5517 5518 5518 5520 5521 5523 5525 5527 5528 5530 5531 5533 5534
5499 5501 5495 5494 5500 5502 5501 5506 5512 5518 5524 5529 5504 5521 5540 5525 5519 5517 5516 5516 5515 5515 5513 5512 5510 5509 5509 5508 5507 5506 5506 5506 5507 5507 5507 5509 5511 5513 5514 5515 5517 5519 5520 5522
5497 5493 5481 5481 5485 5493 5491 5494 5493 5494 5485 5502 5520 5521 5525 5515 5512 5509 5507 5505 5505 5505 5503 5502 5500 5499 5498 5497 5496 5495 5495 5495 5495 5496 5496 5497 5499 5500 5502 5503 5505 5506 5508 5510
5482 5475 5472 5470 5474 5474 5483 5483 5480 5485 5494 5508 5517 5517 5526 5515 5511 5505 5500 5497 5495 5494 5492 5491 5490 5488 5486 5485 5484 5483 5483 5483 5484 5485 5485 5486 5487 5488 5489 5491 5493 5494 5497 5498
5467 5467 5461 5463 5467 5473 5468 5468 5473 5480 5482 5497 5508 5520 5512 5507 5501 5496 5491 5487 5485 5483 5481 5479 5478 5476 5475 5473 5472 5472 5472 5472 5473 5473 5474 5474 5475 5476 5478 5479 5481 5482 5484 5486
5455 5461 5458 5456 5452 5451 5462 5469 5468 5474 5469 5472 5491 5505 5491 5489 5485 5481 5479 5474 5472 5470 5469 5467 5465 5464 5463 5462 5461 5461 5461 5461 5461 5461 5462 5463 5464 5465 5466 5468 5469 5470 5472 5475
5445 5448 5453 5454 5446 5439 5444 5449 5449 5451 5459 5466 5478 5494 5477 5475 5473 5470 5467 5465 5461 5458 5457 5456 5454 5453 5452 5451 5450 5450 5449 5449 5450 5450 5450 5452 5453 5454 5455 5456 5457 5458 5460 5463
5440 5440 5452 5466 5465 5450 5442 5439 5437 5442 5454 5464 5471 5482 5474 5468 5464 5461 5458 5455 5452 5448 5446 5446 5445 5444 5441 5440 5439 5439 5439 5438 5438 5438 5439 5441 5441 5442 5444 5444 5445 5447 5448 5451
5429 5433 5428 5432 5432 5433 5435 5435 5431 5434 5450 5457 5468 5460 5467 5461 5454 5450 5446 5444 5442 5440 5437 5436 5435 5433 5431 5430 5429 5429 5428 5427 5427 5427 5428 5429 5429 5430 5431 5433 5434 5435 5436 5438
5414 5420 5414 5417 5419 5419 5420 5427 5427 5428 5434 5438 5441 5446 5452 5446 5440 5438 5436 5434 5432 5431 5428 5426 5424 5423 5421 5420 5419 5418 5418 5417 5416 5417 5417 5418 5418 5419 5420 5421 5422 5423 5425 5426
5407 5405 5414 5425 5406 5408 5428 5430 5424 5425 5427 5432 5439 5446 5440 5434 5433 5430 5427 5425 5424 5422 5419 5417 5415 5413 5412 5411 5410 5409 5407 5406 5406 5406 5407 5407 5407 5408 5409 5410 5410 5412 5413 5413
5395 5400 5406 5410 5401 5417 5442 5419 5420 5420 5421 5420 5424 5428 5426 5423 5421 5418 5418 5417 5415 5412 5410 5407 5405 5404 5402 5401 5399 5398 5397 5396 5396 5396 5396 5396 5396 5397 5398 5399 5399 5400 5400 5401
5390 5393 5399 5402 5411 5428 5427 5413 5408 5409 5416 5413 5411 5414 5413 5408 5408 5414 5409 5405 5404 5402 5400 5398 5396 5394 5392 5391 5390 5389 5387 5387 5386 5386 5386 5386 5386 5386 5387 5388 5388 5389 5389 5389
5375 5381 5392 5392 5406 5420 5430 5407 5398 5403 5415 5411 5404 5404 5401 5398 5411 5415 5400 5395 5393 5391 5389 5387 5385 5384 5382 5381 5380 5379 5378 5378 5377 5377 5376 5375 5375 5376 5376 5377 5377 5377 5377 5378
5374 5378 5384 5390 5399 5416 5406 5390 5391 5406 5417 5402 5397 5395 5391 5393 5399 5393 5386 5384 5382 5380 5379 5377 5375 5374 5373 5372 5371 5371 5370 5370 5369 5368 5367 5367 5366 5366 5367 5367 5367 5367 5367 5368
5385 5384 5379 5383 5389 5406 5388 5384 5393 5402 5393 5389 5388 5386 5383 5382 5378 5376 5374 5373 5372 5370 5369 5368 5367 5366 5364 5363 5362 5363 5362 5361 5360 5359 5359 5358 5358 5358 5357 5357 5357 5357 5357 5358
5378 5384 5389 5388 5397 5388 5380 5382 5382 5379 5380 5380 5380 5376 5373 5370 5368 5367 5365 5364 5362 5361 5360 5359 5357 5357 5356 5354 5354 5354 5354 5352 5351 5350 5350 5350 5349 5349 5349 5349 5349 5348 5348 5349
5366 5359 5368 5370 5380 5375 5372 5371 5370 5369 5370 5369 5368 5366 5364 5361 5360 5357 5355 5354 5353 5352 5350 5349 5348 5348 5347 5346 5345 5345 5344 5343 5343 5342 5342 5342 5342 5341 5341 5340 5340 5340 5340 5340
5371 5357 5361 5364 5370 5367 5368 5366 5365 5362 5360 5358 5357 5355 5354 5353 5351 5348 5346 5345 5344 5343 5341 5340 5340 5340 5339 5338 5337 5336 5335 5335 5335 5334 5334 5334 5334 5334 5333 5333 5332 5332 5332 5331
5360 5358 5365 5376 5369 5366 5369 5362 5356 5353 5352 5350 5348 5346 5345 5343 5341 5339 5338 5336 5335 5334 5333 5331 5331 5331 5331 5330 5329 5328 5327 5327 5327 5326 5327 5327 5327 5326 5326 5326 5326 5324 5324 5323